Regional Weather Roundup
Issued by NWS

Home | Current Version | Previous Version | Text Only | Print | Product List | Glossary On
Versions: 1 2 3 4 5 6 7 8 9 10 11 12 13 14 15 16 17 18 19 20 21 22 23 24 25 26 27 28 29 30 31 32 33 34 35 36 37 38 39 40 41 42 43 44 45 46 47 48 49 50
000
ASCA44 KEWX 030320
RWRMX

LATIN AMERICA AND CARIBBEAN REGIONAL WEATHER ROUNDUP
NATIONAL WEATHER SERVICE AUSTIN/SAN ANTONIO TX
1000 PM CDT TUE SEP 02 2014

NOTE: "FAIR" INDICATED FEW OR NO CLOUDS BELOW 12,000 FEET WITH NO
SIGNIFICANT WEATHER AND/OR OBSTRUCTIONS TO VISIBILITY.

BAJA CALIFORNIA

CITY           SKY/WX    TMP DP  RH WIND       PRES   REMARKS
LORETO           N/A    N/A N/A N/A MISG        N/A
LA PAZ         MOCLDY    88  73  62 S12       29.74  HX  96
MEXICALI       CLEAR     95  66  38 SE8       29.61  HX  98
S.J. DEL CABO    N/A    N/A N/A N/A MISG        N/A
TIJUANA        CLEAR     68  61  77 W12       29.82R

NORTHWESTERN MEXICO

CITY           SKY/WX    TMP DP  RH WIND       PRES   REMARKS
CULIACAN       CLOUDY    86  79  79 CALM      29.75  HX  99
DURANGO        MOCLDY    72  50  46 SE3       30.08R
GUAYMAS          N/A    N/A N/A N/A MISG        N/A
HERMOSILLO     MOCLDY    93  77  59 SE10      29.75R HX 107
CD. JUAREZ     PTCLDY    90  46  22 SW7       29.89
LOS MOCHIS     MOCLDY    88  75  66 SW9       29.73R HX  97
OBREGON        MOCLDY    90  77  66 CALM      29.69  HX 102

NORTHEASTERN MEXICO

CITY           SKY/WX    TMP DP  RH WIND       PRES   REMARKS
CHIHUAHUA      MOCLDY    82  46  28 N3        29.99
MATAMOROS      MOCLDY    81  77  89 E21       29.88
MONTERREY      CLOUDY    77  72  83 SE17      29.89S
REYNOSA        PTCLDY    79  72  78 E9        29.87
SALTILLO       CLEAR     73  63  68 N17       30.05R
TORREON        PTCLDY    88  55  33 NE22      29.89R
CD. VICTORIA   MOCLDY    75  75 100 NW6       29.84

WESTERN MEXICO

CITY           SKY/WX    TMP DP  RH WIND       PRES   REMARKS
AGUASCALIENTES MOCLDY    64  57  77 S7        30.13
COLIMA         MOCLDY    70  68  94 CALM      29.98S
DEL BAJIO      LGT RAIN  61  57  88 N6        30.18R
GUADALAJARA    PTCLDY    66  57  72 CALM      30.07
MAZATLAN       MOCLDY    81  75  83 SW9       29.73S
P. VALLARTA    MOCLDY    82  77  83 CALM      29.74R HX  91
ZACATECAS      MOCLDY    66  48  52 SW3       30.17R

CENTRAL MEXICO

CITY           SKY/WX    TMP DP  RH WIND       PRES   REMARKS
MEXICO CITY    TSTM      59  37  44 SE3       30.25R
MORELIA        MOCLDY    64  59  82 SW7       30.15
QUERETARO      MOCLDY    61  57  88 NW5       30.19R
S. LUIS POTOSI PTCLDY    70  55  60 NW5       30.12R
TAMPICO        MOCLDY    79  75  89 NE8       29.74R
TOLUCA         CLOUDY    54  46  76 W5        30.32R

SOUTHERN MEXICO

CITY           SKY/WX    TMP DP  RH WIND       PRES   REMARKS
ACAPULCO       MOCLDY    81  73  78 W6        29.85R
OAXACA         MOCLDY    66  63  88 CALM      30.16R
VERACRUZ       CLOUDY    77  75  94 CALM      29.82R

YUCATAN PENINSULA

CITY           SKY/WX    TMP DP  RH WIND       PRES   REMARKS
CAMPECHE       PTCLDY    84  75  74 E9        29.85R HX  92
CANCUN         PTCLDY    82  77  83 E5        29.95R HX  91
CHETUMAL       PTCLDY    82  77  83 E12       29.91R HX  91
COZUMEL        PTCLDY    75  75 100 CALM      29.94R
MERIDA         PTCLDY    82  75  78 CALM      29.90R
TAPACHULA      MOCLDY    82  79  89 CALM      29.90R HX  93
TUX. GUTIERREZ CLOUDY    77  72  83 NE3       29.93R
VILLAHERMOSA   MOCLDY    82  72  69 CALM      29.84R

CENTRAL AMERICA

CITY           SKY/WX    TMP DP  RH WIND       PRES   REMARKS
MANAGUA        PTCLDY    77  73  88 CALM      29.80S

CARIBBEAN

CITY           SKY/WX    TMP DP  RH WIND       PRES   REMARKS
ARUBA          PTCLDY    84  77  79 E20       29.86S HX  94
KINGSTON       PTCLDY    84  75  74 N7        29.92S HX  92
SAN JUAN       PTCLDY    82  77  83 SE3       30.01S HX  91
SANTO DOMINGO  PTCLDY    77  72  83 NE5       29.97S
ST. CROIX      PTCLDY    81  75  83 NE7       30.01
ST. THOMAS     CLEAR     81  75  83 E9        30.00

$$




USA.gov is the U.S. government's official web portal to all federal, state and local government web resources and services.